Total_Precipitation_Accumulation
1.59 1.63 1.69 1.66 1.77 1.92 1.98 1.92 2.02 2.13 2.25 2.22 2.14 2.08 1.94 1.86 1.92 2.00 1.90 2.01 2.04 2.05 2.04 2.11 2.14 2.27 2.42 2.41 2.46 2.51 2.74 3.03 2.94 2.75 2.53 2.32 2.18 2.07 1.92 1.89 1.83 1.75 1.57
1.57 1.58 1.69 1.76 1.76 1.73 1.72 1.76 1.81 1.85 1.92 1.93 1.89 1.89 1.89 1.95 2.03 1.96 1.89 1.91 1.99 1.95 2.02 2.15 2.06 2.22 2.37 2.32 2.42 2.43 2.60 2.93 3.04 3.15 3.12 2.80 2.48 2.30 2.22 2.05 1.70 1.55 1.58
1.63 1.59 1.68 1.65 1.62 1.66 1.79 1.86 1.83 1.84 1.88 1.85 1.84 1.82 1.83 2.00 2.13 2.10 2.06 2.12 2.14 2.02 2.09 2.13 2.01 2.13 2.20 2.20 2.26 2.33 2.50 2.72 2.95 2.93 2.97 2.83 2.65 2.38 2.46 2.20 1.91 1.84 1.50
1.57 1.64 1.75 1.75 1.75 1.84 1.94 2.00 1.96 1.90 1.93 1.99 1.97 1.91 1.93 1.88 1.92 2.07 2.19 2.19 2.16 2.07 2.05 1.96 1.83 1.83 1.92 2.06 2.06 2.19 2.40 2.59 2.77 2.72 2.76 2.82 2.85 2.82 2.83 2.61 2.42 2.18 1.82
1.57 1.71 1.81 1.87 1.87 1.89 1.88 1.96 1.96 1.86 1.82 2.01 2.03 2.00 1.98 1.90 1.79 1.89 2.00 1.93 1.98 1.96 1.90 1.73 1.53 1.55 1.63 1.69 1.66 1.98 2.27 2.40 2.49 2.54 2.62 2.79 2.91 3.11 2.92 2.78 2.67 2.58 2.27
1.44 1.58 1.64 1.76 1.87 1.84 1.79 1.82 1.82 1.86 1.90 1.95 1.93 1.95 1.87 1.60 1.66 1.63 1.60 1.63 1.71 1.75 1.78 1.75 1.57 1.43 1.36 1.38 1.36 1.51 1.82 1.98 2.17 2.43 2.56 2.76 2.85 2.89 3.05 3.01 2.94 2.78 2.52
1.30 1.39 1.50 1.62 1.71 1.73 1.68 1.75 1.85 1.88 1.87 1.78 1.72 1.74 1.72 1.65 1.51 1.33 1.30 1.41 1.58 1.65 1.69 1.71 1.46 1.31 1.36 1.23 1.30 1.37 1.40 1.49 1.65 2.02 2.30 2.40 2.45 2.50 2.78 2.90 2.90 2.78 2.70
1.31 1.40 1.47 1.59 1.64 1.67 1.66 1.63 1.70 1.71 1.72 1.75 1.66 1.66 1.76 1.66 1.54 1.29 1.18 1.16 1.36 1.42 1.40 1.41 1.42 1.40 1.32 1.36 1.35 1.36 1.28 1.29 1.36 1.40 1.55 1.74 2.01 2.24 2.43 2.67 2.94 2.90 2.85
1.28 1.42 1.54 1.64 1.69 1.70 1.73 1.69 1.72 1.73 1.69 1.71 1.70 1.73 1.74 1.69 1.60 1.37 1.25 1.24 1.37 1.40 1.42 1.41 1.48 1.54 1.52 1.37 1.32 1.37 1.39 1.42 1.38 1.40 1.35 1.41 1.54 1.66 1.83 2.12 2.45 2.79 3.00
1.31 1.42 1.55 1.65 1.79 1.77 1.84 1.88 1.86 1.77 1.72 1.74 1.79 1.77 1.69 1.65 1.52 1.30 1.25 1.29 1.48 1.58 1.70 1.69 1.57 1.45 1.43 1.29 1.29 1.40 1.38 1.39 1.33 1.31 1.27 1.24 1.23 1.35 1.51 1.69 1.96 2.33 2.63
1.44 1.53 1.64 1.73 1.81 1.81 1.89 1.95 1.94 1.89 1.89 1.79 1.69 1.70 1.70 1.60 1.40 1.13 1.10 1.14 1.38 1.60 1.66 1.60 1.47 1.29 1.16 1.12 1.10 1.21 1.30 1.24 1.23 1.29 1.34 1.34 1.34 1.39 1.44 1.52 1.78 2.01 2.15
1.61 1.60 1.68 1.81 1.68 1.68 1.91 2.00 2.02 2.05 2.02 1.91 1.79 1.73 1.75 1.69 1.41 1.21 1.15 1.16 1.30 1.55 1.72 1.65 1.48 1.30 1.15 1.08 0.96 1.01 1.08 1.02 1.08 1.24 1.32 1.35 1.36 1.36 1.42 1.54 1.72 1.92 2.09
1.62 1.67 1.69 1.75 1.89 1.97 2.02 2.07 2.05 2.01 2.00 1.98 1.94 1.84 1.82 1.85 1.76 1.47 1.33 1.28 1.36 1.42 1.56 1.70 1.57 1.29 1.10 1.02 0.99 0.91 0.82 0.83 0.98 1.09 1.16 1.23 1.26 1.32 1.43 1.59 1.82 1.98 2.04
1.74 1.83 1.84 1.82 1.88 2.05 2.22 2.22 2.15 2.01 2.04 2.08 1.98 1.96 1.98 2.01 1.91 1.68 1.51 1.39 1.39 1.37 1.39 1.40 1.36 1.22 1.05 1.07 1.09 0.96 0.84 0.91 0.96 0.97 1.04 1.14 1.19 1.27 1.40 1.50 1.67 1.88 2.01
1.95 1.95 1.96 1.99 2.03 2.11 2.11 2.08 2.06 2.01 1.95 1.99 1.98 1.96 1.97 1.94 1.83 1.70 1.58 1.51 1.48 1.42 1.33 1.36 1.32 1.32 1.21 1.16 1.21 1.18 1.13 1.15 1.11 1.05 1.07 1.11 1.16 1.21 1.28 1.40 1.53 1.64 1.75
2.23 2.14 2.13 2.12 2.12 2.09 2.09 1.93 1.78 1.71 1.65 1.56 1.61 1.62 1.58 1.56 1.52 1.44 1.43 1.40 1.36 1.34 1.23 1.34 1.45 1.45 1.40 1.39 1.38 1.36 1.35 1.30 1.28 1.31 1.28 1.23 1.22 1.24 1.22 1.28 1.41 1.47 1.48
2.37 2.33 2.24 2.17 2.07 2.00 2.05 2.06 1.96 1.83 1.78 1.64 1.51 1.44 1.41 1.37 1.30 1.24 1.24 1.28 1.28 1.24 1.19 1.32 1.48 1.51 1.52 1.53 1.47 1.43 1.47 1.41 1.40 1.41 1.38 1.35 1.36 1.37 1.33 1.33 1.42 1.50 1.48
2.27 2.24 2.17 2.13 2.05 2.00 2.04 2.10 2.00 1.95 1.95 1.83 1.66 1.56 1.40 1.24 1.16 1.15 1.21 1.21 1.21 1.19 1.26 1.43 1.60 1.61 1.62 1.61 1.53 1.47 1.48 1.44 1.41 1.41 1.40 1.37 1.38 1.44 1.45 1.41 1.42 1.48 1.48
2.21 2.13 2.09 2.07 2.11 2.15 2.14 2.16 2.12 2.11 2.09 2.02 1.79 1.63 1.50 1.25 1.13 1.14 1.15 1.13 1.24 1.35 1.42 1.52 1.55 1.56 1.58 1.54 1.46 1.42 1.45 1.43 1.40 1.43 1.42 1.42 1.42 1.50 1.50 1.46 1.41 1.45 1.41
2.24 2.21 2.13 2.01 1.98 2.06 2.14 2.09 2.08 2.13 2.11 2.03 1.92 1.70 1.45 1.27 1.19 1.20 1.16 1.18 1.29 1.36 1.38 1.39 1.38 1.37 1.40 1.41 1.41 1.44 1.50 1.48 1.47 1.46 1.40 1.39 1.40 1.43 1.44 1.44 1.41 1.40 1.37
1.96 1.92 1.87 1.74 1.71 1.73 1.87 1.96 1.99 2.08 2.03 1.89 1.77 1.68 1.46 1.20 1.21 1.24 1.25 1.24 1.28 1.31 1.32 1.31 1.30 1.27 1.24 1.29 1.34 1.36 1.40 1.42 1.38 1.34 1.33 1.32 1.30 1.35 1.33 1.30 1.30 1.26 1.26
1.85 1.81 1.71 1.62 1.64 1.70 1.79 1.83 1.92 2.00 1.95 1.84 1.67 1.56 1.48 1.25 1.20 1.19 1.18 1.17 1.18 1.19 1.20 1.28 1.30 1.25 1.22 1.26 1.29 1.30 1.29 1.25 1.21 1.17 1.14 1.12 1.15 1.19 1.19 1.20 1.23 1.23 1.23
1.98 1.91 1.87 1.83 1.74 1.79 1.77 1.82 1.92 1.88 1.80 1.79 1.70 1.57 1.48 1.46 1.37 1.29 1.21 1.15 1.12 1.12 1.10 1.13 1.15 1.13 1.11 1.12 1.13 1.13 1.08 1.04 1.01 0.95 0.96 0.99 1.03 1.08 1.10 1.12 1.19 1.24 1.23
2.01 2.01 1.90 1.78 1.71 1.67 1.69 1.79 1.83 1.75 1.64 1.62 1.58 1.48 1.45 1.45 1.38 1.28 1.12 1.04 1.05 1.04 0.98 0.95 0.90 0.86 0.87 0.89 0.92 0.94 0.90 0.88 0.87 0.88 0.91 0.98 1.02 1.06 1.08 1.11 1.17 1.21 1.21
1.84 1.91 1.92 1.83 1.71 1.59 1.55 1.57 1.57 1.52 1.48 1.45 1.44 1.43 1.41 1.34 1.25 1.16 1.07 1.04 1.01 0.96 0.87 0.82 0.82 0.82 0.80 0.79 0.80 0.82 0.87 0.89 0.90 0.86 0.86 0.93 0.99 1.06 1.06 1.09 1.15 1.20 1.19
1.68 1.71 1.68 1.59 1.47 1.37 1.36 1.39 1.37 1.31 1.27 1.22 1.19 1.17 1.11 1.07 1.04 0.97 0.90 0.88 0.89 0.88 0.84 0.81 0.81 0.83 0.85 0.83 0.80 0.79 0.77 0.73 0.76 0.78 0.73 0.74 0.85 0.95 0.95 0.92 0.92 1.01 1.04